This is the latest recevied weather packets stored in our database for station/object N0NPO. If no packets are shown the sender has not sent any weather packets the latest 10 day(s).
| Time | Temp. | Humidity | Pressure | Rain* | Wind** | Luminosity | Snow |
|---|---|---|---|---|---|---|---|
| 1777584950 | 11.67° C | 1% | 1022 hPa | 0 mm | - | 280 W/m² | - |
| 1777584647 | 11.67° C | 1% | 1022 hPa | 0 mm | - | 664 W/m² | - |
| 1777584344 | 12.22° C | 1% | 1022.1 hPa | 0 mm | - | 555 W/m² | - |
| 1777584040 | 12.22° C | 1% | 1022.1 hPa | 0 mm | - | 624 W/m² | - |
| 1777583735 | 11.67° C | 1% | 1022.6 hPa | 0 mm | - | 621 W/m² | - |
| 1777583434 | 11.67° C | 1% | 1022 hPa | 0 mm | - | 504 W/m² | - |
| 1777583133 | 11.67° C | 1% | 1022.6 hPa | 0 mm | - | 391 W/m² | - |
| 1777582829 | 11.67° C | 1% | 1022.5 hPa | 0 mm | - | 497 W/m² | - |
| 1777582526 | 11.11° C | 1% | 1022.7 hPa | 0 mm | - | 478 W/m² | - |
| 1777582221 | 11.11° C | 1% | 1022.8 hPa | 0 mm | - | 254 W/m² | - |
| 1777581919 | 11.11° C | 1% | 1022.7 hPa | 0 mm | - | 475 W/m² | - |
| 1777581615 | 10.56° C | 1% | 1022.8 hPa | 0 mm | - | 450 W/m² | - |
| 1777581309 | 11.11° C | 1% | 1022.5 hPa | 0 mm | - | 220 W/m² | - |
| 1777581004 | 11.11° C | 1% | 1022.7 hPa | 0 mm | - | 148 W/m² | - |
| 1777580704 | 11.67° C | 1% | 1022.6 hPa | 0 mm | - | 201 W/m² | - |
| 1777580400 | 11.67° C | 1% | 1022.7 hPa | 0 mm | - | 317 W/m² | - |
| 1777580096 | 11.67° C | 1% | 1022.5 hPa | 0 mm | - | 623 W/m² | - |
| 1777579793 | 12.22° C | 1% | 1022.8 hPa | 0 mm | - | 710 W/m² | - |
| 1777579490 | 12.22° C | 1% | 1022.7 hPa | 0 mm | - | 708 W/m² | - |
| 1777579185 | 11.67° C | 1% | 1023 hPa | 0 mm | - | 776 W/m² | - |
| 1777578880 | 12.22° C | 1% | 1023 hPa | 0 mm | - | 602 W/m² | - |
| 1777578577 | 11.67° C | 1% | 1023.1 hPa | 0 mm | - | 650 W/m² | - |
| 1777578271 | 11.67° C | 1% | 1023 hPa | 0 mm | - | 651 W/m² | - |
| 1777577967 | 10.56° C | 1% | 1023.1 hPa | 0 mm | - | 756 W/m² | - |
| 1777577662 | 10.56° C | 1% | 1023.4 hPa | 0 mm | - | 301 W/m² | - |
* Rain latest hour (hover to see other rain measurements)
** Current wind speed in m/s (hover to see current wind gust speed)